Time,TemperatureF,DewpointF,PressureIn,WindDirection,WindDirectionDegrees,WindSpeedMPH,WindSpeedGustMPH,Humidity,HourlyPrecipIn,Conditions,Clouds,dailyrainin,SoftwareType,DateUTC
2013-02-14 00:00:00,33.6,19.3,28.82,WNW,293,3.1,4.9,56,-99.99,,,-99.99,WSDL version 420,2013-02-14 05:00:00,
2013-02-14 00:01:00,33.6,19.3,28.82,WNW,289,2.4,4.9,56,-99.99,,,-99.99,WSDL version 420,2013-02-14 05:01:00,
2013-02-14 00:06:00,33.5,19.5,28.82,NW,308,1.7,4.9,56,0.00,,,0.00,WSDL version 420,2013-02-14 05:06:00,
2013-02-14 00:11:00,33.4,19.4,28.82,WNW,290,2.7,6.5,56,-99.99,,,-99.99,WSDL version 420,2013-02-14 05:11:00,
2013-02-14 00:16:00,33.4,19.3,28.82,WSW,250,1.7,6.5,55,-99.99,,,-99.99,WSDL version 420,2013-02-14 05:16:00,
2013-02-14 00:21:00,33.3,18.8,28.82,WNW,287,3.4,6.3,55,-99.99,,,-99.99,WSDL version 420,2013-02-14 05:21:00,
2013-02-14 00:26:00,33.3,18.8,28.82,NNW,332,1.5,6.5,55,-99.99,,,-99.99,WSDL version 420,2013-02-14 05:26:00,
2013-02-14 00:31:00,33.3,18.0,28.82,WNW,287,3.1,6.5,52,-99.99,,,-99.99,WSDL version 420,2013-02-14 05:31:00,
2013-02-14 00:36:00,33.3,16.6,28.82,NW,308,3.8,8.7,49,0.00,,,0.00,WSDL version 420,2013-02-14 05:36:00,
2013-02-14 00:41:00,33.3,16.2,28.82,NW,318,3.0,8.7,49,0.00,,,0.00,WSDL version 420,2013-02-14 05:41:00,
2013-02-14 00:46:00,33.2,16.1,28.82,WNW,295,2.6,6.3,49,0.00,,,0.00,WSDL version 420,2013-02-14 05:46:00,
2013-02-14 00:51:00,33.1,16.4,28.82,West,278,2.5,5.8,50,-99.99,,,-99.99,WSDL version 420,2013-02-14 05:51:00,
2013-02-14 00:56:00,33.1,16.6,28.82,NW,312,2.5,4.7,51,-99.99,,,-99.99,WSDL version 420,2013-02-14 05:56:00,
2013-02-14 01:01:00,33.1,16.9,28.82,NW,305,1.8,3.4,51,-99.99,,,-99.99,WSDL version 420,2013-02-14 06:01:00,
2013-02-14 01:06:00,33.1,16.9,28.82,WNW,301,2.0,3.8,51,-99.99,,,-99.99,WSDL version 420,2013-02-14 06:06:00,
2013-02-14 01:11:00,33.1,17.1,28.82,WSW,253,3.6,7.8,51,-99.99,,,-99.99,WSDL version 420,2013-02-14 06:11:00,
2013-02-14 01:16:00,32.9,16.6,28.82,West,281,3.8,7.8,50,-99.99,,,-99.99,WSDL version 420,2013-02-14 06:16:00,
2013-02-14 01:21:00,32.9,15.8,28.85,WNW,300,2.5,6.3,48,-99.99,,,-99.99,WSDL version 420,2013-02-14 06:21:00,
2013-02-14 01:26:00,32.9,15.1,28.85,North,8,1.5,6.3,48,-99.99,,,-99.99,WSDL version 420,2013-02-14 06:26:00,
2013-02-14 01:31:00,32.9,15.5,28.85,West,264,2.5,4.3,49,-99.99,,,-99.99,WSDL version 420,2013-02-14 06:31:00,
2013-02-14 01:36:00,32.8,15.7,28.82,WNW,295,1.7,3.8,49,-99.99,,,-99.99,WSDL version 420,2013-02-14 06:36:00,
2013-02-14 01:41:00,32.7,15.7,28.82,NW,309,2.2,3.8,49,-99.99,,,-99.99,WSDL version 420,2013-02-14 06:41:00,
2013-02-14 01:46:00,32.7,15.8,28.82,WNW,283,1.4,3.4,50,0.00,,,0.00,WSDL version 420,2013-02-14 06:46:00,
2013-02-14 01:51:00,32.7,16.1,28.85,WNW,285,1.3,2.7,50,-99.99,,,-99.99,WSDL version 420,2013-02-14 06:51:00,
2013-02-14 01:56:00,32.7,16.1,28.85,WNW,290,2.4,3.8,50,0.00,,,0.00,WSDL version 420,2013-02-14 06:56:00,
2013-02-14 02:01:00,32.7,16.1,28.85,West,276,1.0,3.8,50,0.00,,,0.00,WSDL version 420,2013-02-14 07:01:00,
2013-02-14 02:06:00,32.6,16.0,28.85,WNW,284,1.6,3.4,50,-99.99,,,-99.99,WSDL version 420,2013-02-14 07:06:00,
2013-02-14 02:11:00,32.5,15.6,28.85,WNW,298,2.5,5.8,49,-99.99,,,-99.99,WSDL version 420,2013-02-14 07:11:00,
2013-02-14 02:16:00,32.5,15.0,28.85,NW,312,0.0,5.8,48,-99.99,,,-99.99,WSDL version 420,2013-02-14 07:16:00,
2013-02-14 02:21:00,32.5,14.7,28.85,WNW,300,2.1,6.7,47,-99.99,,,-99.99,WSDL version 420,2013-02-14 07:21:00,
2013-02-14 02:26:00,32.5,14.5,28.85,WSW,253,1.7,6.7,47,0.00,,,0.00,WSDL version 420,2013-02-14 07:26:00,
2013-02-14 02:31:00,32.5,14.5,28.85,WNW,301,2.2,3.6,47,0.00,,,0.00,WSDL version 420,2013-02-14 07:31:00,
2013-02-14 02:32:00,32.4,14.4,28.85,WNW,303,1.5,3.6,47,-99.99,,,-99.99,WSDL version 420,2013-02-14 07:32:00,
2013-02-14 02:37:00,32.4,14.5,28.85,WNW,293,1.5,3.6,48,0.00,,,0.00,WSDL version 420,2013-02-14 07:37:00,
2013-02-14 02:42:00,32.4,14.5,28.85,WNW,283,1.2,3.8,47,0.00,,,0.00,WSDL version 420,2013-02-14 07:42:00,
2013-02-14 02:47:00,32.4,14.4,28.85,WNW,298,2.0,3.8,47,0.00,,,0.00,WSDL version 420,2013-02-14 07:47:00,
2013-02-14 02:52:00,32.4,14.4,28.85,West,275,1.8,4.9,47,-99.99,,,-99.99,WSDL version 420,2013-02-14 07:52:00,
2013-02-14 02:53:00,32.4,14.4,28.85,WSW,255,2.1,5.4,47,-99.99,,,-99.99,WSDL version 420,2013-02-14 07:53:00,
2013-02-14 02:58:00,32.3,14.3,28.85,WNW,301,2.3,5.4,47,-99.99,,,-99.99,WSDL version 420,2013-02-14 07:58:00,
2013-02-14 03:03:00,32.2,14.2,28.85,NW,308,3.1,5.6,47,-99.99,,,-99.99,WSDL version 420,2013-02-14 08:03:00,
2013-02-14 03:08:00,32.2,14.2,28.85,WNW,293,0.0,5.6,47,0.00,,,0.00,WSDL version 420,2013-02-14 08:08:00,
2013-02-14 03:13:00,32.2,14.2,28.85,WNW,293,1.1,2.7,47,-99.99,,,-99.99,WSDL version 420,2013-02-14 08:13:00,
2013-02-14 03:18:00,32.2,14.7,28.85,West,280,1.9,2.9,48,0.00,,,0.00,WSDL version 420,2013-02-14 08:18:00,
2013-02-14 03:23:00,32.2,14.3,28.88,WNW,290,3.4,6.0,47,-99.99,,,-99.99,WSDL version 420,2013-02-14 08:23:00,
2013-02-14 03:28:00,32.1,14.8,28.88,West,270,3.6,6.3,45,-99.99,,,-99.99,WSDL version 420,2013-02-14 08:28:00,
2013-02-14 03:37:00,31.6,14.4,28.85,NW,309,2.0,2.9,44,-99.99,,,-99.99,WSDL version 420,2013-02-14 08:37:00,
2013-02-14 03:42:00,31.5,13.9,28.85,NNW,346,2.5,4.3,43,0.00,,,0.00,WSDL version 420,2013-02-14 08:42:00,
2013-02-14 03:47:00,31.5,13.7,28.85,WNW,295,3.0,5.4,43,-99.99,,,-99.99,WSDL version 420,2013-02-14 08:47:00,
2013-02-14 03:52:00,31.5,13.7,28.88,NW,312,3.6,5.6,43,-99.99,,,-99.99,WSDL version 420,2013-02-14 08:52:00,
2013-02-14 03:57:00,31.3,13.6,28.88,WNW,295,1.6,5.6,43,-99.99,,,-99.99,WSDL version 420,2013-02-14 08:57:00,
2013-02-14 04:02:00,31.2,13.5,28.88,NNW,335,1.1,3.8,43,0.00,,,0.00,WSDL version 420,2013-02-14 09:02:00,
2013-02-14 04:07:00,31.1,13.4,28.88,North,360,0.0,2.5,43,0.00,,,0.00,WSDL version 420,2013-02-14 09:07:00,
2013-02-14 04:12:00,30.9,13.5,28.88,West,268,1.0,2.0,44,-99.99,,,-99.99,WSDL version 420,2013-02-14 09:12:00,
2013-02-14 04:17:00,31.1,14.0,28.88,WNW,293,0.0,2.2,45,0.00,,,0.00,WSDL version 420,2013-02-14 09:17:00,
2013-02-14 04:22:00,31.1,14.5,28.88,West,260,0.6,2.5,46,0.00,,,0.00,WSDL version 420,2013-02-14 09:22:00,
2013-02-14 04:27:00,31.1,14.8,28.88,WNW,301,2.7,4.9,47,0.00,,,0.00,WSDL version 420,2013-02-14 09:27:00,
2013-02-14 04:32:00,31.3,15.4,28.88,WNW,293,3.2,4.9,47,0.00,,,0.00,WSDL version 420,2013-02-14 09:32:00,
2013-02-14 04:37:00,31.5,15.4,28.88,WNW,284,4.5,5.6,46,-99.99,,,-99.99,WSDL version 420,2013-02-14 09:37:00,
2013-02-14 04:42:00,31.6,15.0,28.88,WNW,290,3.3,5.6,45,0.00,,,0.00,WSDL version 420,2013-02-14 09:42:00,
2013-02-14 04:48:00,31.6,14.8,28.88,WNW,295,2.1,5.6,45,0.00,,,0.00,WSDL version 420,2013-02-14 09:48:00,
2013-02-14 04:53:00,31.6,14.8,28.88,NW,318,2.0,4.3,45,-99.99,,,-99.99,WSDL version 420,2013-02-14 09:53:00,
2013-02-14 04:58:00,31.6,14.7,28.88,NW,315,2.0,3.8,45,-99.99,,,-99.99,WSDL version 420,2013-02-14 09:58:00,
2013-02-14 05:03:00,31.5,14.6,28.88,WNW,283,2.0,5.8,45,-99.99,,,-99.99,WSDL version 420,2013-02-14 10:03:00,
2013-02-14 05:08:00,31.5,14.6,28.91,NW,320,2.7,5.8,45,0.00,,,0.00,WSDL version 420,2013-02-14 10:08:00,
2013-02-14 05:13:00,31.5,14.6,28.91,WNW,298,3.8,5.6,45,-99.99,,,-99.99,WSDL version 420,2013-02-14 10:13:00,
2013-02-14 05:18:00,31.5,14.7,28.91,WNW,290,0.6,5.6,45,-99.99,,,-99.99,WSDL version 420,2013-02-14 10:18:00,
2013-02-14 05:23:00,31.5,14.6,28.88,SSE,160,1.7,4.3,45,-99.99,,,-99.99,WSDL version 420,2013-02-14 10:23:00,
2013-02-14 05:29:00,31.6,14.8,28.88,NW,310,2.6,4.0,46,-99.99,,,-99.99,WSDL version 420,2013-02-14 10:29:00,
2013-02-14 05:34:00,31.6,15.1,28.88,ENE,62,0.0,4.0,45,-99.99,,,-99.99,WSDL version 420,2013-02-14 10:34:00,
2013-02-14 05:39:00,31.6,15.1,28.88,SSW,193,0.0,1.6,46,-99.99,,,-99.99,WSDL version 420,2013-02-14 10:39:00,
2013-02-14 05:44:00,31.6,15.3,28.88,SSW,203,0.0,2.5,46,-99.99,,,-99.99,WSDL version 420,2013-02-14 10:44:00,
2013-02-14 05:49:00,31.6,15.3,28.88,SW,220,0.0,2.5,46,0.00,,,0.00,WSDL version 420,2013-02-14 10:49:00,
2013-02-14 05:54:00,31.6,15.3,28.91,West,273,0.0,2.2,46,-99.99,,,-99.99,WSDL version 420,2013-02-14 10:54:00,
2013-02-14 05:59:00,31.6,15.3,28.91,WSW,255,0.0,2.2,46,-99.99,,,-99.99,WSDL version 420,2013-02-14 10:59:00,
2013-02-14 06:04:00,31.6,15.3,28.91,SW,225,0.0,0.0,46,-99.99,,,-99.99,WSDL version 420,2013-02-14 11:04:00,
2013-02-14 06:09:00,31.6,15.3,28.88,SSE,155,0.0,1.1,46,-99.99,,,-99.99,WSDL version 420,2013-02-14 11:09:00,
2013-02-14 06:14:00,31.6,15.3,28.88,SE,135,0.0,1.6,46,-99.99,,,-99.99,WSDL version 420,2013-02-14 11:14:00,
2013-02-14 06:19:00,31.7,15.5,28.88,South,180,0.8,3.4,47,0.00,,,0.00,WSDL version 420,2013-02-14 11:19:00,
2013-02-14 06:24:00,31.8,15.9,28.91,SW,220,2.2,3.4,47,-99.99,,,-99.99,WSDL version 420,2013-02-14 11:24:00,
2013-02-14 06:29:00,31.8,15.9,28.91,SSW,200,0.6,3.1,47,-99.99,,,-99.99,WSDL version 420,2013-02-14 11:29:00,
2013-02-14 06:34:00,31.8,15.9,28.91,SSE,158,1.0,3.1,47,-99.99,,,-99.99,WSDL version 420,2013-02-14 11:34:00,
2013-02-14 06:39:00,31.9,16.3,28.91,WSW,243,1.0,3.8,48,-99.99,,,-99.99,WSDL version 420,2013-02-14 11:39:00,
2013-02-14 06:44:00,32.0,16.5,28.91,SW,225,1.5,3.8,48,0.00,,,0.00,WSDL version 420,2013-02-14 11:44:00,
2013-02-14 06:49:00,32.1,15.9,28.91,SW,230,1.8,3.8,48,0.00,,,0.00,WSDL version 420,2013-02-14 11:49:00,
2013-02-14 06:54:00,32.2,14.7,28.91,SSW,200,1.1,2.9,48,-99.99,,,-99.99,WSDL version 420,2013-02-14 11:54:00,
2013-02-14 06:59:00,32.2,14.7,28.91,South,175,0.6,3.1,48,0.00,,,0.00,WSDL version 420,2013-02-14 11:59:00,
2013-02-14 07:04:00,32.2,14.7,28.91,SSE,155,2.1,4.3,48,-99.99,,,-99.99,WSDL version 420,2013-02-14 12:04:00,
2013-02-14 07:09:00,32.2,14.7,28.91,ESE,113,0.4,4.3,48,-99.99,,,-99.99,WSDL version 420,2013-02-14 12:09:00,
2013-02-14 07:14:00,32.2,14.4,28.91,ESE,105,0.5,2.9,47,-99.99,,,-99.99,WSDL version 420,2013-02-14 12:14:00,
2013-02-14 07:19:00,32.2,14.5,28.91,ESE,115,1.9,3.4,48,0.00,,,0.00,WSDL version 420,2013-02-14 12:19:00,
2013-02-14 07:24:00,32.4,14.5,28.91,SE,135,0.0,3.4,47,0.00,,,0.00,WSDL version 420,2013-02-14 12:24:00,
2013-02-14 07:29:00,32.4,14.9,28.91,South,169,0.0,1.3,48,-99.99,,,-99.99,WSDL version 420,2013-02-14 12:29:00,
2013-02-14 07:34:00,32.4,14.9,28.91,South,180,0.0,0.9,48,0.00,,,0.00,WSDL version 420,2013-02-14 12:34:00,
2013-02-14 07:39:00,32.5,15.0,28.91,South,172,1.0,3.1,48,-99.99,,,-99.99,WSDL version 420,2013-02-14 12:39:00,
2013-02-14 07:44:00,32.5,15.0,28.91,SE,135,0.5,3.1,48,-99.99,,,-99.99,WSDL version 420,2013-02-14 12:44:00,
2013-02-14 07:49:00,32.7,15.2,28.91,SSE,165,0.0,2.0,48,-99.99,,,-99.99,WSDL version 420,2013-02-14 12:49:00,
2013-02-14 07:54:00,32.7,15.2,28.91,SE,143,0.0,1.6,48,-99.99,,,-99.99,WSDL version 420,2013-02-14 12:54:00,
2013-02-14 07:59:00,32.9,15.4,28.91,SSE,155,0.7,3.8,48,0.00,,,0.00,WSDL version 420,2013-02-14 12:59:00,
2013-02-14 08:04:00,33.1,15.5,28.91,South,177,0.0,3.8,48,0.00,,,0.00,WSDL version 420,2013-02-14 13:04:00,
2013-02-14 08:09:00,33.2,15.6,28.91,South,178,0.0,3.1,48,0.00,,,0.00,WSDL version 420,2013-02-14 13:09:00,
2013-02-14 08:14:00,33.3,15.7,28.91,South,180,0.0,3.1,48,-99.99,,,-99.99,WSDL version 420,2013-02-14 13:14:00,
2013-02-14 08:19:00,33.6,16.0,28.91,NE,38,1.4,2.7,48,-99.99,,,-99.99,WSDL version 420,2013-02-14 13:19:00,
2013-02-14 08:24:00,33.8,15.8,28.91,WNW,298,1.1,3.1,47,-99.99,,,-99.99,WSDL version 420,2013-02-14 13:24:00,
2013-02-14 08:29:00,33.9,16.0,28.91,West,267,2.3,3.8,48,-99.99,,,-99.99,WSDL version 420,2013-02-14 13:29:00,
2013-02-14 08:34:00,34.2,16.5,28.91,South,185,0.0,3.8,48,0.00,,,0.00,WSDL version 420,2013-02-14 13:34:00,
2013-02-14 08:39:00,34.7,16.7,28.91,South,172,1.1,2.9,47,0.00,,,0.00,WSDL version 420,2013-02-14 13:39:00,
2013-02-14 08:44:00,34.8,16.1,28.91,SSW,203,0.0,2.9,46,-99.99,,,-99.99,WSDL version 420,2013-02-14 13:44:00,
2013-02-14 08:49:00,35.1,16.3,28.91,SE,141,0.0,1.1,46,0.00,,,0.00,WSDL version 420,2013-02-14 13:49:00,
2013-02-14 08:54:00,35.5,16.3,28.91,SE,143,0.0,1.1,45,-99.99,,,-99.99,WSDL version 420,2013-02-14 13:54:00,
2013-02-14 08:59:00,35.8,16.5,28.91,North,10,0.0,0.0,44,-99.99,,,-99.99,WSDL version 420,2013-02-14 13:59:00,
2013-02-14 09:04:00,36.2,16.4,28.91,NW,321,0.0,0.0,44,0.00,,,0.00,WSDL version 420,2013-02-14 14:04:00,
2013-02-14 09:09:00,36.2,16.3,28.91,SSW,200,0.0,0.0,43,-99.99,,,-99.99,WSDL version 420,2013-02-14 14:09:00,
2013-02-14 09:14:00,36.1,15.6,28.91,South,169,1.3,3.8,42,0.00,,,0.00,WSDL version 420,2013-02-14 14:14:00,
2013-02-14 09:19:00,35.8,15.2,28.91,WSW,248,1.8,4.0,42,-99.99,,,-99.99,WSDL version 420,2013-02-14 14:19:00,
2013-02-14 09:24:00,35.8,15.4,28.91,NW,315,1.3,4.0,43,-99.99,,,-99.99,WSDL version 420,2013-02-14 14:24:00,
2013-02-14 09:29:00,36.3,16.0,28.91,WSW,258,1.4,2.9,43,-99.99,,,-99.99,WSDL version 420,2013-02-14 14:29:00,
2013-02-14 09:34:00,36.6,16.2,28.91,WNW,290,1.0,3.4,43,-99.99,,,-99.99,WSDL version 420,2013-02-14 14:34:00,
2013-02-14 09:39:00,36.7,15.9,28.91,WSW,256,0.7,3.4,42,0.00,,,0.00,WSDL version 420,2013-02-14 14:39:00,
2013-02-14 09:44:00,36.5,15.6,28.91,WNW,300,3.4,6.0,42,-99.99,,,-99.99,WSDL version 420,2013-02-14 14:44:00,
2013-02-14 09:49:00,36.5,15.6,28.91,WNW,298,2.9,6.0,42,-99.99,,,-99.99,WSDL version 420,2013-02-14 14:49:00,
2013-02-14 09:54:00,36.6,15.7,28.91,WNW,285,2.3,5.4,42,0.00,,,0.00,WSDL version 420,2013-02-14 14:54:00,
2013-02-14 09:59:00,36.4,15.5,28.91,West,273,3.0,5.4,42,0.00,,,0.00,WSDL version 420,2013-02-14 14:59:00,
2013-02-14 10:04:00,36.5,15.6,28.91,WNW,288,1.4,5.6,42,-99.99,,,-99.99,WSDL version 420,2013-02-14 15:04:00,
2013-02-14 10:09:00,37.1,16.1,28.91,WNW,293,2.8,5.6,42,0.00,,,0.00,WSDL version 420,2013-02-14 15:09:00,
2013-02-14 10:14:00,37.6,16.4,28.91,WSW,250,0.6,4.3,41,-99.99,,,-99.99,WSDL version 420,2013-02-14 15:14:00,
2013-02-14 10:19:00,37.7,15.8,28.91,SW,223,2.7,6.5,40,-99.99,,,-99.99,WSDL version 420,2013-02-14 15:19:00,
2013-02-14 10:24:00,38.0,16.3,28.91,SSW,199,1.1,6.5,40,-99.99,,,-99.99,WSDL version 420,2013-02-14 15:24:00,
2013-02-14 10:29:00,38.4,16.7,28.91,WSW,245,1.2,3.1,41,0.00,,,0.00,WSDL version 420,2013-02-14 15:29:00,
2013-02-14 10:34:00,38.5,16.4,28.91,West,262,2.1,4.9,40,-99.99,,,-99.99,WSDL version 420,2013-02-14 15:34:00,
2013-02-14 10:39:00,38.7,16.5,28.91,West,275,1.2,4.9,40,-99.99,,,-99.99,WSDL version 420,2013-02-14 15:39:00,
2013-02-14 10:44:00,39.3,16.6,28.91,SW,235,1.5,4.0,39,0.00,,,0.00,WSDL version 420,2013-02-14 15:44:00,
2013-02-14 10:49:00,41.4,18.3,28.91,NE,48,0.6,4.0,39,0.00,,,0.00,WSDL version 420,2013-02-14 15:49:00,
2013-02-14 10:54:00,43.6,19.5,28.91,NE,51,2.0,4.3,38,0.00,,,0.00,WSDL version 420,2013-02-14 15:54:00,
2013-02-14 10:59:00,43.6,17.1,28.91,WNW,302,2.9,6.5,31,0.00,,,0.00,WSDL version 420,2013-02-14 15:59:00,
2013-02-14 11:04:00,43.0,14.1,28.91,WNW,303,2.1,6.5,31,-99.99,,,-99.99,WSDL version 420,2013-02-14 16:04:00,
2013-02-14 11:09:00,42.4,13.1,28.91,WNW,298,2.7,7.6,30,-99.99,,,-99.99,WSDL version 420,2013-02-14 16:09:00,
2013-02-14 11:14:00,41.8,12.6,28.91,WNW,290,2.2,10.5,30,-99.99,,,-99.99,WSDL version 420,2013-02-14 16:14:00,
2013-02-14 11:19:00,43.5,14.3,28.91,SSW,205,2.0,10.5,31,-99.99,,,-99.99,WSDL version 420,2013-02-14 16:19:00,
2013-02-14 11:24:00,47.0,16.7,28.91,WSW,245,3.4,6.5,28,0.00,,,0.00,WSDL version 420,2013-02-14 16:24:00,
2013-02-14 11:29:00,48.2,16.3,28.91,SE,145,3.0,7.6,26,-99.99,,,-99.99,WSDL version 420,2013-02-14 16:29:00,
2013-02-14 11:34:00,48.7,15.6,28.91,SW,219,2.3,7.6,26,0.00,,,0.00,WSDL version 420,2013-02-14 16:34:00,
2013-02-14 11:39:00,47.4,14.4,28.91,WNW,295,4.5,8.5,27,-99.99,,,-99.99,WSDL version 420,2013-02-14 16:39:00,
2013-02-14 11:44:00,46.6,14.1,28.91,WSW,256,3.1,8.5,27,-99.99,,,-99.99,WSDL version 420,2013-02-14 16:44:00,
2013-02-14 11:49:00,47.4,14.1,28.91,SW,228,2.9,5.4,27,0.00,,,0.00,WSDL version 420,2013-02-14 16:49:00,
2013-02-14 11:54:00,47.9,12.9,28.91,SW,230,2.3,7.4,24,0.00,,,0.00,WSDL version 420,2013-02-14 16:54:00,
2013-02-14 11:59:00,47.9,12.8,28.91,South,180,4.6,12.1,24,-99.99,,,-99.99,WSDL version 420,2013-02-14 16:59:00,
2013-02-14 12:04:00,47.5,12.5,28.91,South,188,3.8,12.1,24,-99.99,,,-99.99,WSDL version 420,2013-02-14 17:04:00,
2013-02-14 12:09:00,49.4,14.1,28.91,SW,231,2.7,8.1,24,-99.99,,,-99.99,WSDL version 420,2013-02-14 17:09:00,
2013-02-14 12:14:00,47.2,10.8,28.91,South,183,5.3,11.9,22,-99.99,,,-99.99,WSDL version 420,2013-02-14 17:14:00,
2013-02-14 12:19:00,44.6,10.5,28.91,West,267,2.3,11.9,25,-99.99,,,-99.99,WSDL version 420,2013-02-14 17:19:00,
2013-02-14 12:24:00,44.0,10.4,28.91,SSW,213,4.7,13.0,25,-99.99,,,-99.99,WSDL version 420,2013-02-14 17:24:00,
2013-02-14 12:29:00,43.7,11.9,28.91,SSW,193,4.1,13.0,28,0.00,,,0.00,WSDL version 420,2013-02-14 17:29:00,
2013-02-14 12:34:00,44.3,13.0,28.91,SW,217,4.1,7.8,27,0.00,,,0.00,WSDL version 420,2013-02-14 17:34:00,
2013-02-14 12:39:00,45.4,13.2,28.88,West,270,5.5,9.8,27,-99.99,,,-99.99,WSDL version 420,2013-02-14 17:39:00,
2013-02-14 12:44:00,44.7,13.1,28.88,South,180,2.6,12.1,27,-99.99,,,-99.99,WSDL version 420,2013-02-14 17:44:00,
2013-02-14 12:49:00,45.0,13.0,28.88,South,183,3.6,12.1,27,-99.99,,,-99.99,WSDL version 420,2013-02-14 17:49:00,
2013-02-14 12:54:00,45.4,12.8,28.88,SSE,155,5.0,11.0,25,-99.99,,,-99.99,WSDL version 420,2013-02-14 17:54:00,
2013-02-14 12:59:00,46.1,13.2,28.88,SSW,194,1.7,11.0,27,-99.99,,,-99.99,WSDL version 420,2013-02-14 17:59:00,
2013-02-14 13:04:00,45.7,12.9,28.88,SSW,205,3.9,10.5,25,-99.99,,,-99.99,WSDL version 420,2013-02-14 18:04:00,
2013-02-14 13:09:00,45.8,11.8,28.88,WSW,256,2.3,8.7,24,-99.99,,,-99.99,WSDL version 420,2013-02-14 18:09:00,
2013-02-14 13:14:00,47.7,13.9,28.88,South,190,2.1,8.7,24,-99.99,,,-99.99,WSDL version 420,2013-02-14 18:14:00,
2013-02-14 13:19:00,46.9,11.2,28.88,SSW,200,3.5,9.8,24,-99.99,,,-99.99,WSDL version 420,2013-02-14 18:19:00,
2013-02-14 13:24:00,46.7,11.2,28.88,SSE,165,4.1,9.8,22,-99.99,,,-99.99,WSDL version 420,2013-02-14 18:24:00,
2013-02-14 13:29:00,48.9,12.7,28.88,SSW,208,3.0,8.5,21,-99.99,,,-99.99,WSDL version 420,2013-02-14 18:29:00,
2013-02-14 13:34:00,48.7,11.7,28.88,West,280,4.9,8.5,21,-99.99,,,-99.99,WSDL version 420,2013-02-14 18:34:00,
2013-02-14 13:39:00,48.0,10.6,28.85,WSW,238,4.6,11.9,22,-99.99,,,-99.99,WSDL version 420,2013-02-14 18:39:00,
2013-02-14 13:44:00,48.7,10.5,28.85,South,180,5.1,11.9,21,0.00,,,0.00,WSDL version 420,2013-02-14 18:44:00,
2013-02-14 13:49:00,48.0,10.4,28.85,WSW,245,4.4,10.1,22,0.00,,,0.00,WSDL version 420,2013-02-14 18:49:00,
2013-02-14 13:54:00,47.9,10.7,28.85,South,186,5.1,11.0,22,0.00,,,0.00,WSDL version 420,2013-02-14 18:54:00,
2013-02-14 13:59:00,48.4,10.4,28.85,West,270,4.4,11.0,21,0.00,,,0.00,WSDL version 420,2013-02-14 18:59:00,
2013-02-14 14:04:00,49.9,11.5,28.85,South,186,2.9,10.7,21,-99.99,,,-99.99,WSDL version 420,2013-02-14 19:04:00,
2013-02-14 14:09:00,51.4,12.4,28.85,West,273,3.1,7.6,19,-99.99,,,-99.99,WSDL version 420,2013-02-14 19:09:00,
2013-02-14 14:14:00,51.6,10.6,28.85,SSE,160,5.1,7.8,18,-99.99,,,-99.99,WSDL version 420,2013-02-14 19:14:00,
2013-02-14 14:19:00,51.3,10.5,28.85,South,180,6.0,8.7,19,-99.99,,,-99.99,WSDL version 420,2013-02-14 19:19:00,
2013-02-14 14:24:00,51.8,10.4,28.85,SSW,193,3.5,8.7,18,-99.99,,,-99.99,WSDL version 420,2013-02-14 19:24:00,
2013-02-14 14:29:00,52.6,10.3,28.85,SW,219,2.1,8.5,18,0.00,,,0.00,WSDL version 420,2013-02-14 19:29:00,
2013-02-14 14:34:00,52.2,10.2,28.85,SW,225,3.7,7.6,19,0.00,,,0.00,WSDL version 420,2013-02-14 19:34:00,
2013-02-14 14:39:00,51.5,10.2,28.82,NNW,343,3.1,7.6,19,0.00,,,0.00,WSDL version 420,2013-02-14 19:39:00,
2013-02-14 14:44:00,51.8,10.3,28.82,South,190,3.8,7.4,19,-99.99,,,-99.99,WSDL version 420,2013-02-14 19:44:00,
2013-02-14 14:49:00,50.9,10.1,28.82,WSW,245,2.9,7.4,19,0.00,,,0.00,WSDL version 420,2013-02-14 19:49:00,
2013-02-14 14:54:00,50.7,9.9,28.82,SSW,200,4.0,9.6,19,-99.99,,,-99.99,WSDL version 420,2013-02-14 19:54:00,
2013-02-14 14:59:00,51.0,10.2,28.82,SSW,193,3.8,9.6,19,-99.99,,,-99.99,WSDL version 420,2013-02-14 19:59:00,
2013-02-14 15:04:00,49.2,8.7,28.82,WNW,287,4.5,8.1,19,-99.99,,,-99.99,WSDL version 420,2013-02-14 20:04:00,
2013-02-14 15:09:00,48.1,7.8,28.82,SW,215,5.2,9.6,19,-99.99,,,-99.99,WSDL version 420,2013-02-14 20:09:00,
2013-02-14 15:14:00,49.6,9.0,28.82,SW,222,4.6,9.6,19,-99.99,,,-99.99,WSDL version 420,2013-02-14 20:14:00,
2013-02-14 15:19:00,49.2,8.7,28.82,SW,225,3.2,8.1,19,0.00,,,0.00,WSDL version 420,2013-02-14 20:19:00,
2013-02-14 15:24:00,48.7,8.2,28.82,SW,218,4.5,8.1,19,0.00,,,0.00,WSDL version 420,2013-02-14 20:24:00,
2013-02-14 15:29:00,48.1,7.7,28.82,SSW,200,2.5,7.8,19,0.00,,,0.00,WSDL version 420,2013-02-14 20:29:00,
2013-02-14 15:34:00,48.8,8.4,28.82,South,180,4.2,11.0,19,-99.99,,,-99.99,WSDL version 420,2013-02-14 20:34:00,
2013-02-14 15:39:00,48.9,8.4,28.82,South,169,3.0,11.0,19,-99.99,,,-99.99,WSDL version 420,2013-02-14 20:39:00,
2013-02-14 15:44:00,49.0,8.6,28.82,SW,223,1.7,5.8,19,-99.99,,,-99.99,WSDL version 420,2013-02-14 20:44:00,
2013-02-14 15:49:00,48.3,7.9,28.82,South,183,4.4,10.3,19,-99.99,,,-99.99,WSDL version 420,2013-02-14 20:49:00,
2013-02-14 15:54:00,47.5,7.3,28.82,SSW,200,2.6,10.3,19,-99.99,,,-99.99,WSDL version 420,2013-02-14 20:54:00,
2013-02-14 15:59:00,47.3,7.1,28.82,SSW,210,4.6,9.8,19,-99.99,,,-99.99,WSDL version 420,2013-02-14 20:59:00,
2013-02-14 16:04:00,46.4,6.8,28.82,WSW,248,3.4,7.2,20,0.00,,,0.00,WSDL version 420,2013-02-14 21:04:00,
2013-02-14 16:09:00,46.7,6.6,28.82,SSW,213,1.1,7.4,19,-99.99,,,-99.99,WSDL version 420,2013-02-14 21:09:00,
2013-02-14 16:14:00,46.6,6.5,28.82,South,180,1.6,7.4,19,-99.99,,,-99.99,WSDL version 420,2013-02-14 21:14:00,
2013-02-14 16:19:00,46.0,7.2,28.82,West,268,3.0,6.0,20,-99.99,,,-99.99,WSDL version 420,2013-02-14 21:19:00,
2013-02-14 16:24:00,45.7,6.9,28.82,South,180,3.1,6.0,20,-99.99,,,-99.99,WSDL version 420,2013-02-14 21:24:00,
2013-02-14 16:29:00,45.8,7.0,28.82,South,180,2.3,6.0,20,-99.99,,,-99.99,WSDL version 420,2013-02-14 21:29:00,
2013-02-14 16:34:00,45.9,7.0,28.82,WSW,253,3.6,6.3,20,-99.99,,,-99.99,WSDL version 420,2013-02-14 21:34:00,
2013-02-14 16:39:00,45.9,7.0,28.82,SW,214,3.1,6.3,20,-99.99,,,-99.99,WSDL version 420,2013-02-14 21:39:00,
2013-02-14 16:44:00,45.8,7.0,28.82,South,183,1.8,4.0,20,-99.99,,,-99.99,WSDL version 420,2013-02-14 21:44:00,
2013-02-14 16:49:00,45.7,6.9,28.82,SSE,163,2.3,3.8,20,-99.99,,,-99.99,WSDL version 420,2013-02-14 21:49:00,
2013-02-14 16:54:00,45.9,7.1,28.82,SSE,165,2.6,4.7,20,-99.99,,,-99.99,WSDL version 420,2013-02-14 21:54:00,
2013-02-14 16:59:00,46.5,8.6,28.82,SSW,194,1.7,4.7,22,0.00,,,0.00,WSDL version 420,2013-02-14 21:59:00,
2013-02-14 17:04:00,47.1,7.5,28.82,SW,223,2.3,4.9,19,-99.99,,,-99.99,WSDL version 420,2013-02-14 22:04:00,
2013-02-14 17:09:00,47.3,7.1,28.82,SSW,205,3.0,8.5,19,-99.99,,,-99.99,WSDL version 420,2013-02-14 22:09:00,
2013-02-14 17:14:00,46.5,6.9,28.82,South,188,2.1,8.5,20,-99.99,,,-99.99,WSDL version 420,2013-02-14 22:14:00,
2013-02-14 17:19:00,45.5,6.8,28.82,WNW,300,1.5,4.7,20,0.00,,,0.00,WSDL version 420,2013-02-14 22:19:00,
2013-02-14 17:24:00,45.1,6.4,28.85,SSW,197,1.2,5.8,20,-99.99,,,-99.99,WSDL version 420,2013-02-14 22:24:00,
2013-02-14 17:29:00,44.6,6.0,28.85,South,180,1.5,5.8,20,-99.99,,,-99.99,WSDL version 420,2013-02-14 22:29:00,
2013-02-14 17:34:00,44.2,5.6,28.85,NE,51,1.0,4.9,20,-99.99,,,-99.99,WSDL version 420,2013-02-14 22:34:00,
2013-02-14 17:39:00,43.6,5.2,28.85,SW,223,2.7,5.6,20,-99.99,,,-99.99,WSDL version 420,2013-02-14 22:39:00,
2013-02-14 17:44:00,43.6,5.1,28.85,South,185,2.7,5.6,20,-99.99,,,-99.99,WSDL version 420,2013-02-14 22:44:00,
2013-02-14 17:49:00,43.6,5.2,28.85,SSW,205,1.7,5.6,20,-99.99,,,-99.99,WSDL version 420,2013-02-14 22:49:00,
2013-02-14 17:54:00,43.2,4.8,28.82,SSE,160,0.9,5.8,20,-99.99,,,-99.99,WSDL version 420,2013-02-14 22:54:00,
2013-02-14 17:59:00,43.2,4.8,28.82,South,186,0.0,7.4,20,-99.99,,,-99.99,WSDL version 420,2013-02-14 22:59:00,
2013-02-14 18:04:00,42.3,4.8,28.82,WSW,248,0.0,7.4,21,0.00,,,0.00,WSDL version 420,2013-02-14 23:04:00,
2013-02-14 18:09:00,41.1,4.1,28.85,NW,326,0.0,3.1,21,-99.99,,,-99.99,WSDL version 420,2013-02-14 23:09:00,
2013-02-14 18:14:00,40.3,5.4,28.85,North,350,1.1,2.0,23,-99.99,,,-99.99,WSDL version 420,2013-02-14 23:14:00,
2013-02-14 18:19:00,39.7,4.9,28.85,NW,315,0.0,2.2,23,-99.99,,,-99.99,WSDL version 420,2013-02-14 23:19:00,
2013-02-14 18:24:00,39.4,6.0,28.85,SSE,163,0.4,3.1,26,-99.99,,,-99.99,WSDL version 420,2013-02-14 23:24:00,
2013-02-14 18:29:00,39.7,7.6,28.85,SW,225,1.5,3.6,26,-99.99,,,-99.99,WSDL version 420,2013-02-14 23:29:00,
2013-02-14 18:34:00,39.3,8.6,28.85,WNW,293,0.8,3.6,29,-99.99,,,-99.99,WSDL version 420,2013-02-14 23:34:00,
2013-02-14 18:39:00,37.9,8.5,28.85,NW,315,0.0,2.7,29,-99.99,,,-99.99,WSDL version 420,2013-02-14 23:39:00,
2013-02-14 18:44:00,37.0,8.4,28.85,WNW,301,0.4,2.2,30,-99.99,,,-99.99,WSDL version 420,2013-02-14 23:44:00,
2013-02-14 18:49:00,36.4,8.4,28.85,NW,315,0.0,2.2,31,-99.99,,,-99.99,WSDL version 420,2013-02-14 23:49:00,
2013-02-14 18:54:00,36.1,8.5,28.85,West,270,0.0,2.2,32,0.00,,,0.00,WSDL version 420,2013-02-14 23:54:00,
2013-02-14 18:59:00,36.2,9.2,28.85,WNW,287,0.0,2.2,32,-99.99,,,-99.99,WSDL version 420,2013-02-14 23:59:00,
2013-02-14 19:04:00,36.5,10.6,28.85,SW,220,0.0,2.2,34,0.00,,,0.00,WSDL version 420,2013-02-15 00:04:00,
2013-02-14 19:09:00,36.7,11.6,28.85,SW,219,0.4,2.0,37,-99.99,,,-99.99,WSDL version 420,2013-02-15 00:09:00,
2013-02-14 19:14:00,36.8,12.6,28.85,South,183,0.1,2.0,36,-99.99,,,-99.99,WSDL version 420,2013-02-15 00:14:00,
2013-02-14 19:19:00,37.1,13.1,28.85,South,180,0.0,2.5,37,-99.99,,,-99.99,WSDL version 420,2013-02-15 00:19:00,
2013-02-14 19:24:00,37.0,13.1,28.85,SSW,208,0.5,2.5,37,0.00,,,0.00,WSDL version 420,2013-02-15 00:24:00,
2013-02-14 19:29:00,37.1,14.0,28.85,WSW,248,0.7,2.2,39,-99.99,,,-99.99,WSDL version 420,2013-02-15 00:29:00,
2013-02-14 19:34:00,37.3,14.6,28.85,West,270,0.6,1.6,39,0.00,,,0.00,WSDL version 420,2013-02-15 00:34:00,
2013-02-14 19:39:00,37.3,14.9,28.85,South,170,0.4,2.2,40,0.00,,,0.00,WSDL version 420,2013-02-15 00:39:00,
2013-02-14 19:44:00,37.3,15.0,28.85,South,180,0.0,2.2,40,-99.99,,,-99.99,WSDL version 420,2013-02-15 00:44:00,
2013-02-14 19:49:00,37.0,14.9,28.85,South,180,0.0,1.3,40,-99.99,,,-99.99,WSDL version 420,2013-02-15 00:49:00,
2013-02-14 19:54:00,36.7,14.7,28.85,South,180,0.0,0.0,40,-99.99,,,-99.99,WSDL version 420,2013-02-15 00:54:00,
2013-02-14 19:59:00,36.9,14.8,28.85,South,180,0.0,0.0,40,0.00,,,0.00,WSDL version 420,2013-02-15 00:59:00,
2013-02-14 20:04:00,37.1,15.0,28.85,ESE,113,1.0,2.0,40,-99.99,,,-99.99,WSDL version 420,2013-02-15 01:04:00,
2013-02-14 20:09:00,37.6,15.4,28.85,SSE,158,0.6,2.2,40,-99.99,,,-99.99,WSDL version 420,2013-02-15 01:09:00,
2013-02-14 20:14:00,37.4,15.3,28.85,SSE,158,0.0,2.2,40,0.00,,,0.00,WSDL version 420,2013-02-15 01:14:00,
2013-02-14 20:19:00,37.5,15.3,28.85,SE,141,0.0,0.9,40,0.00,,,0.00,WSDL version 420,2013-02-15 01:19:00,
2013-02-14 20:24:00,37.9,15.7,28.85,SE,135,0.2,2.0,40,0.00,,,0.00,WSDL version 420,2013-02-15 01:24:00,
2013-02-14 20:29:00,38.4,15.9,28.85,SE,135,0.8,2.0,39,0.00,,,0.00,WSDL version 420,2013-02-15 01:29:00,
2013-02-14 20:34:00,38.6,15.8,28.85,ESE,118,0.4,2.5,39,0.00,,,0.00,WSDL version 420,2013-02-15 01:34:00,
2013-02-14 20:39:00,38.5,15.2,28.82,ESE,113,0.5,2.5,38,-99.99,,,-99.99,WSDL version 420,2013-02-15 01:39:00,
2013-02-14 20:44:00,38.7,14.8,28.82,SE,146,0.6,3.4,37,-99.99,,,-99.99,WSDL version 420,2013-02-15 01:44:00,
2013-02-14 20:49:00,38.8,14.2,28.82,South,172,0.8,3.4,36,-99.99,,,-99.99,WSDL version 420,2013-02-15 01:49:00,
2013-02-14 20:54:00,38.3,13.4,28.85,South,188,1.0,2.9,36,-99.99,,,-99.99,WSDL version 420,2013-02-15 01:54:00,
2013-02-14 20:59:00,37.4,13.0,28.85,WSW,248,0.0,2.0,37,-99.99,,,-99.99,WSDL version 420,2013-02-15 01:59:00,
2013-02-14 21:04:00,36.3,12.6,28.85,West,270,0.0,2.2,38,-99.99,,,-99.99,WSDL version 420,2013-02-15 02:04:00,
2013-02-14 21:09:00,35.7,13.3,28.82,WSW,248,0.0,2.2,40,-99.99,,,-99.99,WSDL version 420,2013-02-15 02:09:00,
2013-02-14 21:14:00,35.2,13.3,28.82,WNW,293,0.4,1.6,40,-99.99,,,-99.99,WSDL version 420,2013-02-15 02:14:00,
2013-02-14 21:19:00,34.7,12.8,28.82,WNW,293,0.0,1.6,40,-99.99,,,-99.99,WSDL version 420,2013-02-15 02:19:00,
2013-02-14 21:24:00,34.4,12.7,28.82,WNW,293,0.0,0.0,40,-99.99,,,-99.99,WSDL version 420,2013-02-15 02:24:00,
2013-02-14 21:29:00,34.3,12.8,28.82,WNW,293,0.6,2.9,41,0.00,,,0.00,WSDL version 420,2013-02-15 02:29:00,
2013-02-14 21:34:00,34.3,13.3,28.82,SW,218,0.0,2.9,42,0.00,,,0.00,WSDL version 420,2013-02-15 02:34:00,
2013-02-14 21:39:00,34.1,13.4,28.82,ESE,113,0.0,2.2,42,-99.99,,,-99.99,WSDL version 420,2013-02-15 02:39:00,
2013-02-14 21:44:00,34.0,13.4,28.82,SW,218,1.3,3.1,42,0.00,,,0.00,WSDL version 420,2013-02-15 02:44:00,
2013-02-14 21:49:00,33.9,14.1,28.82,West,270,0.5,3.1,44,-99.99,,,-99.99,WSDL version 420,2013-02-15 02:49:00,
2013-02-14 21:54:00,33.9,14.3,28.82,WNW,293,1.8,2.9,44,-99.99,,,-99.99,WSDL version 420,2013-02-15 02:54:00,
2013-02-14 21:59:00,34.0,14.8,28.82,NW,323,2.1,3.8,45,0.00,,,0.00,WSDL version 420,2013-02-15 02:59:00,
2013-02-14 22:04:00,34.0,14.9,28.82,NE,37,0.7,3.8,45,0.00,,,0.00,WSDL version 420,2013-02-15 03:04:00,
2013-02-14 22:09:00,34.4,15.6,28.82,East,100,1.1,3.4,46,-99.99,,,-99.99,WSDL version 420,2013-02-15 03:09:00,
2013-02-14 22:14:00,35.7,17.6,28.82,SW,231,2.1,4.3,48,-99.99,,,-99.99,WSDL version 420,2013-02-15 03:14:00,
2013-02-14 22:19:00,36.7,18.3,28.82,WNW,285,1.9,4.3,47,-99.99,,,-99.99,WSDL version 420,2013-02-15 03:19:00,
2013-02-14 22:24:00,38.5,18.9,28.82,SW,222,2.0,3.4,43,-99.99,,,-99.99,WSDL version 420,2013-02-15 03:24:00,
2013-02-14 22:29:00,39.2,17.5,28.82,South,177,0.4,3.4,40,0.00,,,0.00,WSDL version 420,2013-02-15 03:29:00,
2013-02-14 22:34:00,39.5,17.0,28.82,SW,230,1.4,2.7,39,-99.99,,,-99.99,WSDL version 420,2013-02-15 03:34:00,
2013-02-14 22:39:00,39.4,16.5,28.82,NE,48,1.3,2.7,39,0.00,,,0.00,WSDL version 420,2013-02-15 03:39:00,
2013-02-14 22:44:00,39.3,16.2,28.82,South,178,0.9,2.9,39,-99.99,,,-99.99,WSDL version 420,2013-02-15 03:44:00,
2013-02-14 22:49:00,38.8,15.3,28.82,SW,225,0.0,2.9,37,0.00,,,0.00,WSDL version 420,2013-02-15 03:49:00,
2013-02-14 22:54:00,38.3,14.3,28.82,SSW,203,0.2,3.4,37,0.00,,,0.00,WSDL version 420,2013-02-15 03:54:00,
2013-02-14 22:59:00,38.8,14.7,28.82,SSW,203,0.0,3.8,37,0.00,,,0.00,WSDL version 420,2013-02-15 03:59:00,
2013-02-14 23:04:00,39.3,14.7,28.82,West,278,0.3,6.0,36,0.00,,,0.00,WSDL version 420,2013-02-15 04:04:00,
2013-02-14 23:09:00,39.7,14.3,28.82,WNW,288,1.1,6.0,35,0.00,,,0.00,WSDL version 420,2013-02-15 04:09:00,
2013-02-14 23:14:00,40.4,13.9,28.82,NW,326,3.7,4.9,32,0.00,,,0.00,WSDL version 420,2013-02-15 04:14:00,
2013-02-14 23:19:00,41.3,13.3,28.82,SSE,160,2.1,4.9,31,-99.99,,,-99.99,WSDL version 420,2013-02-15 04:19:00,
2013-02-14 23:24:00,40.2,12.4,28.85,ESE,113,0.6,4.9,31,-99.99,,,-99.99,WSDL version 420,2013-02-15 04:24:00,
2013-02-14 23:29:00,39.1,11.5,28.85,SE,135,0.0,2.5,32,-99.99,,,-99.99,WSDL version 420,2013-02-15 04:29:00,
2013-02-14 23:34:00,38.3,11.0,28.85,NNW,333,0.0,1.3,32,-99.99,,,-99.99,WSDL version 420,2013-02-15 04:34:00,
2013-02-14 23:39:00,37.8,11.4,28.85,West,270,0.0,2.9,34,-99.99,,,-99.99,WSDL version 420,2013-02-15 04:39:00,
2013-02-14 23:44:00,37.5,11.8,28.85,West,280,0.5,2.9,35,-99.99,,,-99.99,WSDL version 420,2013-02-15 04:44:00,
2013-02-14 23:49:00,37.3,12.9,28.85,West,270,0.0,2.7,37,0.00,,,0.00,WSDL version 420,2013-02-15 04:49:00,
2013-02-14 23:54:00,36.8,13.5,28.85,West,270,0.0,2.7,38,0.00,,,0.00,WSDL version 420,2013-02-15 04:54:00,
2013-02-14 23:59:00,36.2,13.4,28.85,West,270,0.0,1.3,39,0.00,,,0.00,WSDL version 420,2013-02-15 04:59:00,